カタログに戻る

SL-6 R/B(2)

運用中VLEO
NORAD 20666·ROCKET BODY·🇷🇺 Russia

打ち上げ Jun 21, 1990 から Plesetsk Cosmodrome

Loading…

次のパス (今後24時間)

TLE

最新Source: Space-Track

元期: Sep 14, 2026, 22:21 UTC

1 20666U 90055D   26257.93144293  .00001081  00000-0  89669-4 0  9998
2 20666  62.7829 329.9124 0054609  16.6500 343.6376 15.04279475966656

AllMySatでSL-6 R/B(2)をリアルタイム追跡

Download on the App Store